Location: Riverside Cemetery
(38.3047°N, 99.7773°W)
Time: 03:23:58
(UTC+00:00)

USA 234 - Pass Details

Date: 19 September 2020
Orbit: 1102 x 1106 km, 123.0° (Epoch: 16 October)

Event Time Altitude Azimuth Distance (km) Brightness Sun altitude
Exits shadow 03:29:33 - 39° (NE) 3,373 5.7 -32.2°
Reaches altitude 10° 03:30:39 10° 36° (NE) 2,965 5.5 -32.3°
Maximum altitude 03:36:51 47° 325° (NW) 1,423 4.1 -33.4°
Drops below altitude 10° 03:43:03 10° 254° (WSW) 2,959 5.9 -34.4°
Sets 03:45:36 0° 249° (WSW) 3,915 6.5 -34.8°
